Location: Caltech
(34.1382°N, 118.1253°W)
Time: 18:47:26
(UTC-07:00)

Cosmos 1484 Rocket - Visible Passes

Search period start: 26 April 2015 00:00
Search period end: 06 May 2015 00:00
Orbit: 512 x 567 km, 97.4° (Epoch: 25 April)

Date Brightness Start Highest point End Pass type
(mag) Time Alt. Az. Time Alt. Az. Time Alt. Az.
26 Apr 5.8 21:08:15 10° WSW 21:09:54 12° W 21:11:19 10° WNW visible
27 Apr 5.7 21:00:06 10° SW 21:02:26 15° W 21:04:39 10° WNW visible
28 Apr 5.5 20:52:11 10° SW 20:54:59 18° W 20:57:43 10° NW visible
29 Apr 5.2 20:44:24 10° SSW 20:47:32 23° W 20:50:40 10° NW visible
30 Apr 4.9 20:36:43 10° SSW 20:40:06 28° W 20:43:31 10° NW visible
01 May 4.5 20:29:05 10° SSW 20:32:40 35° W 20:36:19 10° NNW visible
02 May 4.0 20:21:31 10° S 20:25:15 44° W 20:29:04 10° NNW visible
03 May 3.6 20:13:59 10° S 20:17:50 56° W 20:21:45 10° NNW visible
04 May 3.1 20:06:31 10° S 20:10:24 71° W 20:14:24 10° NNW visible
